map of INN home
INN - Airport
Location
City:  Innsbruck, Tirol (Tyrol), Austria
Name:Innsbruck Airport
Old (Alt.):Kranebitten Airport
ICAO:LOWI
IATA:INN

Details
Type:Airport (Flugplatz, Airfield)
Use:Public/Civil, International (customs port of entry)
Latitude:4715'37"N (47.260219)
Longitude:1120'38"E (11.343964)
Datum:WGS 1984
Elevation:1906 ft (581 m)
Variation:3.15E (WMM2015 magnetic declination)
0.12 annual change
Runways:1
Longest:6562 × 148 ft (2000 × 45 m), paved

Time
Time Zone:UTC+1 (DST+2)
Local Time:

Weather
METAR:LOWI 180450Z 27003KT 9999 FEW005 SCT008 BKN010 M00/M01 Q1013 TEMPO BKN008
TAF:LOWI 180515Z 1806/1906 27005KT 9999 FEW006 BKN012 TX01/1814Z TNM07/1906Z PROB40
TEMPO 1806/1809 SCT012 BKN060
BECMG 1809/1811 FEW020 SCT060

Related Locations
Nearby:
Farthest:CHT: 11990 mi / 19296 km
Waitangi [Tuuta], CIT, NZ

Find:

   beyond  
but within

Other Information
Maps:
NOTAMs:
Links:
Sources:

  
  • flag of Austria
  • flag of Tirol (Tyrol)
  

Sectional Chart

Flight Planning
at skyvector.com

Satellite Image

Google Maps Satellite view

 

Copyright © 2004-2019 Karl L. Swartz. All rights reserved.
The Great Circle Mapper name and logo are trademarks of the Great Circle Mapper.
All other trademarks mentioned herein belong to their respective owners.
Please see credits for attibutions and further copyright information.

  Follow gcmap on Facebook Follow gcmap on Twitter Follow gcmap on Google+ GCmap on LinkedIn

hCard Microformat

Geo Microformat